GEFSGL_500_meanwind_246.txt.gz
Wind_Speed
10 9 9 8 8 8 7 8 8 8 8 8 8 7 7 7 7 8 9 9 9 9 9 9 8 9 9 9 9 10 10 10 10 10 10 11 12 12 13 14 14 15 15
10 10 9 9 9 9 9 9 8 8 9 9 9 8 8 8 8 9 9 9 9 9 9 9 9 9 9 9 10 10 10 11 11 11 11 12 13 13 14 15 15 15 16
11 11 10 10 10 10 10 10 10 9 9 10 10 10 9 9 9 10 10 10 10 10 10 10 9 10 10 10 10 10 11 11 12 12 12 13 13 14 15 15 16 17 18
12 12 12 12 12 12 11 11 11 11 10 10 11 11 10 10 10 11 11 11 11 11 11 11 11 11 11 11 11 11 11 12 12 13 13 14 14 15 15 16 17 17 18
14 14 14 14 13 13 13 13 13 13 12 12 12 11 11 12 12 12 11 11 12 12 12 12 12 12 12 12 13 13 13 13 13 13 14 15 15 16 16 17 18 19 20
15 15 15 15 14 14 14 14 14 14 13 13 13 12 13 13 13 13 12 12 12 12 12 13 13 14 14 14 13 13 14 14 14 15 15 16 16 17 18 19 20 21 21
16 16 15 15 14 14 15 15 15 14 14 14 15 15 15 15 15 14 14 14 14 13 14 14 15 15 15 15 15 14 14 15 16 16 17 17 18 18 19 21 21 22 23
17 16 16 16 16 15 16 16 15 15 15 15 16 16 16 15 15 15 15 15 15 15 15 16 16 16 15 15 16 15 16 16 17 18 19 19 20 20 21 22 23 24 25
18 17 17 17 17 17 17 17 17 17 17 17 17 17 17 17 17 17 17 17 17 17 17 17 17 17 17 17 17 17 18 18 19 19 19 20 21 22 23 24 24 25 26
20 19 19 19 19 18 18 19 19 19 19 19 18 18 18 18 18 18 18 18 18 18 18 17 17 18 18 18 19 19 19 20 20 20 21 22 22 24 24 25 26 27 28
21 20 20 20 20 20 20 20 20 21 20 20 19 19 19 19 19 20 20 20 20 19 19 19 19 19 20 20 21 21 21 21 21 22 23 23 24 25 26 27 28 29 29
22 23 22 21 21 21 21 20 20 21 21 21 21 21 21 21 20 21 21 21 21 21 21 21 21 21 21 22 22 22 23 23 23 24 25 26 26 27 28 29 29 30 31
24 24 24 23 22 22 22 22 22 22 22 22 23 23 22 22 22 22 22 22 22 22 22 23 23 23 23 24 24 24 24 25 25 26 27 28 28 29 30 30 31 31 32
25 25 24 24 24 23 23 23 23 23 23 23 24 24 24 24 24 24 24 24 24 24 24 24 25 25 25 25 26 26 27 28 28 28 29 30 30 30 31 32 32 32 33
26 26 25 25 25 25 25 25 25 25 25 25 25 26 26 26 26 26 26 26 26 26 26 26 26 27 27 27 28 29 29 29 30 31 31 32 32 32 33 33 33 33 33
27 27 27 26 26 26 27 27 27 27 27 27 27 28 28 28 28 28 28 28 28 28 28 28 28 29 29 29 30 31 31 32 32 33 33 33 33 34 34 34 35 35 35
28 28 28 28 28 28 28 29 29 29 29 30 30 30 30 30 30 30 30 30 30 30 30 31 31 31 31 32 32 32 33 34 34 35 35 35 35 35 35 35 35 36 36
28 29 29 29 29 30 30 30 30 30 31 31 32 31 32 32 32 32 32 32 31 32 32 32 32 33 33 34 34 34 35 36 36 37 37 36 36 36 36 36 37 37 37
29 30 30 30 31 31 31 31 31 32 32 32 32 33 33 33 33 33 33 33 33 33 33 34 34 34 35 35 35 36 37 37 37 38 37 37 38 38 38 38 38 39 39
30 30 31 31 32 33 33 33 33 33 33 33 33 34 34 34 34 34 34 35 34 34 35 35 35 36 36 37 38 39 39 39 39 38 38 38 38 39 38 39 39 39 40
30 31 31 32 33 33 34 34 34 34 35 35 35 35 35 35 35 36 36 37 37 37 37 37 37 38 39 39 40 41 41 40 40 39 39 39 39 39 39 39 39 39 40
31 31 32 33 33 34 34 34 34 34 35 36 36 36 36 36 37 38 38 38 39 39 39 39 40 40 41 41 42 42 42 42 41 40 40 40 40 40 40 40 40 40 41
32 33 33 33 34 35 35 34 35 35 35 36 36 36 37 37 38 39 39 39 40 40 40 41 41 42 42 43 43 43 43 42 42 42 42 41 41 41 41 41 42 42 42
33 33 33 34 34 35 35 35 35 35 36 36 36 36 37 38 38 39 39 40 40 40 40 41 42 43 44 43 43 42 42 42 42 41 41 41 42 42 42 42 42 42 41
33 33 33 34 35 35 35 35 35 36 36 36 37 37 38 38 38 39 39 40 40 40 41 42 43 43 43 43 42 42 42 42 42 41 41 41 42 42 43 43 42 41 40
33 34 34 34 35 35 35 35 36 36 37 37 37 37 38 39 39 39 39 40 40 41 42 42 42 43 42 42 43 43 42 42 42 42 42 42 42 42 41 41 40 40 39

GEFSGL_500_meanwind_252.txt.gz
Wind_Speed
9 8 8 7 7 7 7 8 8 8 8 8 7 7 8 8 8 7 7 7 7 6 6 6 6 7 7 7 8 8 9 9 9 10 11 11 11 11 11 12 12 13 13
10 9 8 8 8 9 9 9 9 9 8 8 8 8 8 8 7 7 7 7 7 7 7 7 7 7 8 8 8 8 9 10 10 11 12 12 13 13 13 13 14 14 15
11 11 10 10 10 10 10 10 10 9 9 8 8 8 8 8 8 8 8 7 8 8 8 8 8 8 9 8 9 9 10 10 11 11 12 13 13 14 14 15 15 15 15
12 12 12 11 11 11 11 11 11 10 10 9 9 8 8 8 8 9 9 9 9 9 10 10 10 10 9 10 10 11 11 11 12 12 13 13 14 14 15 15 15 16 16
12 12 12 12 12 12 12 12 12 11 10 10 10 10 10 9 9 10 10 10 10 10 11 11 11 11 11 11 12 12 12 12 13 13 14 14 14 15 15 15 16 16 17
12 12 12 12 13 13 12 13 13 12 12 12 12 11 12 11 11 11 11 11 11 11 11 12 12 12 12 13 13 13 14 14 14 14 15 15 15 15 15 16 16 17 18
13 13 13 12 13 13 13 14 14 14 13 13 13 13 13 13 13 13 12 12 12 13 13 13 13 14 14 14 15 15 15 15 15 15 15 16 16 16 17 17 18 19 19
15 14 14 14 14 14 14 14 14 15 15 15 14 14 15 14 14 14 14 14 14 14 14 14 14 15 15 15 15 15 15 16 16 17 17 17 17 17 18 19 20 21 21
16 15 15 15 15 15 15 15 15 15 16 16 16 16 16 16 15 15 16 16 16 16 16 16 16 16 16 16 16 16 17 17 17 18 18 18 19 20 20 21 22 23 23
17 16 16 16 16 16 16 16 16 16 16 17 17 17 17 17 17 17 17 17 17 17 18 18 18 18 17 17 17 17 18 18 19 19 19 20 20 21 22 23 24 25 25
20 19 18 18 18 18 17 17 17 18 18 17 17 18 18 18 18 18 18 19 19 19 19 20 20 19 19 19 19 20 20 20 20 21 22 22 23 23 24 25 26 27 28
23 22 20 19 19 19 19 19 19 19 19 19 19 19 20 21 21 20 20 20 21 21 21 21 22 22 22 22 22 22 22 23 23 24 24 24 25 26 27 27 28 29 30
24 24 23 22 21 21 20 20 20 20 21 20 20 21 21 22 22 22 22 23 23 23 23 23 23 24 24 24 24 25 25 25 25 26 26 26 27 28 29 29 30 31 31
25 25 25 24 24 23 23 22 22 22 22 22 22 22 23 23 23 24 24 24 25 25 25 25 25 26 26 26 26 27 27 27 27 27 28 29 30 30 30 31 32 33 33
26 27 27 26 26 25 24 24 24 24 24 24 24 24 25 25 25 26 26 27 27 27 27 27 27 27 27 28 28 29 29 29 30 30 31 31 32 33 34 34 34 35 35
28 28 27 28 27 27 26 26 26 26 26 26 27 27 26 27 27 28 28 28 29 29 29 29 30 30 29 30 30 31 31 31 32 32 33 34 34 35 35 35 35 35 36
27 28 28 28 29 29 28 27 27 27 28 28 28 29 28 29 29 29 29 30 30 30 30 31 31 32 32 32 32 33 33 33 34 35 35 36 36 36 36 36 37 37 37
28 29 29 29 29 30 30 30 30 29 29 30 30 30 30 31 31 32 32 32 31 31 31 32 32 33 33 33 34 34 35 36 36 37 37 37 37 37 37 38 38 38 38
30 30 31 31 31 31 32 32 32 31 31 31 31 31 32 32 32 33 33 33 33 33 33 33 33 33 34 34 35 35 36 37 38 38 38 39 39 39 39 39 39 39 39
31 31 32 32 32 33 33 33 33 33 32 32 32 32 33 34 34 34 34 34 34 34 34 34 35 34 35 36 36 36 36 37 38 38 39 40 41 41 41 41 40 40 40
30 31 31 32 32 33 33 34 33 33 32 32 32 33 34 34 35 36 35 35 35 35 35 35 36 37 37 37 37 38 38 38 39 39 40 41 42 41 41 41 41 41 41
30 30 31 31 32 33 33 33 33 33 33 32 33 34 34 35 35 35 36 36 36 36 36 37 37 38 38 39 39 39 40 40 41 41 42 42 42 42 42 42 42 42 42
29 30 30 31 32 32 32 32 32 32 33 33 34 35 35 35 35 35 35 36 36 37 38 38 38 38 39 39 40 40 41 42 42 43 43 43 43 42 42 42 42 41 42
29 29 30 30 31 31 32 32 32 32 33 34 35 35 35 35 36 36 36 36 37 38 37 38 38 38 39 39 40 41 42 42 43 43 43 43 43 43 43 43 42 41 41
29 29 30 30 30 31 31 31 32 32 33 35 35 36 36 36 36 37 36 36 37 37 37 38 38 38 39 39 40 41 41 42 42 43 43 43 43 43 43 43 42 41 41
30 30 30 30 30 31 31 32 32 33 34 34 35 36 36 36 37 37 37 36 36 36 37 38 38 38 39 40 40 40 40 41 41 41 42 41 41 42 42 41 41 41 41

GEFSGL_500_meanwind_258.txt.gz
Wind_Speed
8 8 8 8 8 8 8 8 8 8 9 9 9 9 8 8 9 9 8 8 8 8 8 8 8 8 8 8 9 10 10 11 11 11 11 12 13 13 13 13 14 14 15
10 10 10 10 10 10 9 9 9 9 9 9 9 9 9 9 9 9 9 9 9 9 8 8 9 9 9 10 11 11 12 12 12 12 12 13 13 13 14 14 14 15 15
11 11 11 11 11 11 11 11 11 11 10 10 9 9 10 10 10 10 10 10 10 10 10 9 10 10 10 11 12 12 13 13 14 13 13 14 14 14 14 14 15 15 15
12 12 12 12 12 12 12 12 12 12 11 11 11 10 10 11 11 11 12 12 12 12 11 11 11 12 12 12 12 12 13 14 14 14 15 15 15 15 15 15 16 16 16
13 13 13 13 13 13 13 13 13 12 12 12 12 11 11 12 12 13 13 13 13 13 13 13 13 13 13 13 13 14 14 14 14 15 15 16 16 16 16 17 17 18 18
14 14 14 14 14 15 14 14 14 13 13 13 13 12 12 12 13 13 13 14 13 14 14 14 14 14 14 14 15 15 15 15 15 15 16 16 17 17 18 18 18 18 19
16 15 15 15 15 16 15 15 15 14 14 14 13 13 14 13 13 14 14 14 14 14 14 14 15 15 15 15 16 16 16 17 17 17 17 17 18 18 18 19 19 19 19
17 17 17 16 16 16 16 15 15 15 15 14 14 14 15 15 15 15 15 15 15 16 16 16 16 17 17 17 17 17 18 19 19 19 19 19 19 20 20 20 20 21 21
19 19 18 18 18 17 17 17 16 16 16 16 16 16 17 17 17 16 16 16 17 17 17 17 17 18 18 18 19 19 20 20 20 20 21 22 21 21 22 22 22 22 23
21 21 20 20 20 19 18 18 18 17 17 17 18 18 19 19 19 19 19 18 18 19 19 19 19 20 21 21 21 21 22 22 22 23 23 24 23 23 24 24 24 25 25
23 23 23 22 22 21 21 20 19 19 19 19 19 20 20 20 21 21 21 21 21 21 21 21 22 22 22 23 23 23 23 23 24 24 25 25 25 25 26 27 27 27 27
24 24 25 24 24 24 24 23 22 22 22 21 21 21 21 22 22 23 23 23 23 23 23 23 24 24 24 24 25 25 25 25 26 27 27 27 28 27 28 28 29 29 29
24 24 25 26 25 25 25 24 24 24 23 23 23 23 23 23 23 23 24 25 25 25 26 26 26 27 27 27 27 27 27 28 28 29 29 29 30 29 30 30 31 31 31
26 25 26 26 26 26 26 25 25 25 25 24 24 24 24 24 25 25 26 26 26 27 27 28 29 29 29 29 29 29 29 30 30 30 30 31 32 32 32 32 32 33 34
27 27 27 27 27 27 27 27 27 27 27 26 26 25 25 25 26 26 27 27 28 28 29 29 30 30 30 31 31 31 31 32 32 33 33 33 33 34 34 34 34 35 35
28 28 28 28 28 28 28 28 28 28 28 28 27 27 27 27 28 28 29 29 29 30 30 30 31 32 32 32 32 33 34 34 35 35 34 35 35 34 35 35 36 37 37
28 28 29 29 29 29 29 29 29 29 29 29 29 29 30 30 30 31 31 31 32 31 31 31 32 32 33 34 34 35 35 35 35 35 35 35 35 35 36 36 37 37 37
29 30 30 30 30 31 31 31 32 32 31 31 30 30 30 31 32 32 33 32 33 33 33 33 33 34 34 35 35 35 35 35 35 35 35 36 36 37 37 37 37 38 38
29 30 30 31 31 32 32 32 33 33 33 33 32 31 32 32 33 33 34 34 34 34 34 34 35 35 35 35 35 35 36 36 36 37 37 38 38 38 37 37 38 38 38
29 30 31 31 32 32 32 33 33 34 34 34 34 33 33 33 34 34 34 34 35 35 35 35 35 35 35 35 35 36 36 36 37 37 38 38 38 38 38 38 38 39 39
30 30 31 31 31 32 33 33 34 34 34 34 34 34 34 34 34 34 34 34 35 36 36 37 37 36 36 36 36 37 37 37 38 38 38 39 38 38 38 39 39 39 40
31 31 31 31 32 33 33 33 34 35 35 35 35 34 34 34 34 34 34 35 35 36 37 37 38 37 37 37 37 37 38 38 39 39 39 39 39 39 38 39 39 39 40
31 31 31 31 32 32 33 33 34 34 35 35 35 35 35 35 35 35 35 35 36 37 37 37 37 37 37 37 37 38 38 39 39 39 39 38 38 38 38 39 39 40 40
31 30 31 31 31 32 32 33 33 33 33 34 34 34 34 34 35 35 35 35 36 37 37 37 37 37 37 37 38 39 39 39 39 39 39 39 39 39 39 39 40 40 40
31 31 32 32 32 32 32 32 32 32 33 33 34 34 34 34 34 35 35 36 37 37 37 37 37 37 37 38 38 39 39 39 39 39 39 38 38 39 39 39 40 40 40
32 32 32 32 32 32 32 32 32 32 33 33 34 34 34 34 35 35 36 37 37 37 37 37 37 37 38 39 39 39 39 39 39 39 38 38 38 38 39 39 39 40 40

GEFSGL_500_meanwind_264.txt.gz
Wind_Speed
12 12 12 11 10 10 9 9 9 9 9 8 8 8 8 8 8 8 8 8 8 8 8 9 9 9 9 9 9 9 8 9 9 10 10 11 11 11 12 12 13 13 13
13 13 12 11 11 11 11 10 10 10 10 9 9 9 9 9 8 8 8 8 9 9 9 9 9 10 10 10 10 10 9 9 10 10 11 12 12 13 13 13 14 15 15
14 14 14 13 13 12 12 12 11 11 11 12 11 11 10 10 10 9 9 9 10 10 10 10 10 10 10 11 11 11 10 11 11 10 11 12 12 14 14 15 15 15 16
15 15 15 15 14 13 13 13 13 13 12 12 12 12 11 10 11 11 10 10 10 11 11 11 11 12 12 12 12 12 12 12 13 12 12 12 14 14 14 15 15 15 15
17 16 16 16 15 14 14 14 14 14 13 13 12 12 11 11 12 12 12 11 11 12 12 12 12 13 13 13 13 13 13 14 14 14 14 15 16 15 15 15 15 15 16
18 18 18 17 16 16 15 15 15 14 14 14 14 13 13 13 13 14 13 13 13 13 13 13 14 14 14 14 15 15 15 15 15 15 16 16 17 17 16 16 17 17 17
20 19 19 19 18 18 17 16 16 16 16 15 15 15 15 15 15 15 15 15 15 14 14 15 15 16 16 16 16 16 16 17 17 16 17 18 18 18 18 18 18 19 18
21 20 20 20 20 19 19 18 18 17 17 16 16 16 16 16 17 17 17 16 16 16 16 16 16 16 16 17 17 18 18 18 18 18 19 19 20 20 20 21 21 21 21
22 22 22 22 21 20 20 19 19 19 18 18 18 17 17 18 18 18 19 19 19 19 19 18 18 18 18 18 19 19 19 20 20 20 21 21 21 21 22 23 22 22 23
23 23 23 23 22 21 21 21 21 21 20 20 20 19 20 20 20 20 21 21 21 21 21 20 20 20 20 20 21 21 21 22 22 22 22 22 22 23 24 24 24 24 24
23 23 23 23 24 23 23 23 23 23 23 22 22 22 22 22 22 22 22 21 22 22 22 23 23 23 23 23 24 24 24 24 24 24 24 25 25 25 25 25 26 26 27
24 24 24 25 26 26 25 25 25 24 24 24 24 24 24 24 24 24 24 23 23 23 24 24 25 25 25 25 26 26 26 26 26 26 27 27 27 27 27 28 28 29 29
26 26 26 26 25 26 26 26 26 26 26 26 26 25 25 25 25 25 25 24 24 24 25 25 26 26 27 27 27 27 28 28 28 28 28 28 29 29 30 30 30 30 30
27 27 28 28 27 26 27 27 27 26 26 26 26 26 26 26 26 25 25 25 25 25 26 26 27 27 28 28 28 29 30 30 30 30 30 30 31 31 31 32 32 32 32
27 28 28 28 28 28 28 28 28 27 27 27 27 27 27 27 27 27 27 27 27 28 28 27 27 28 29 30 30 31 31 31 32 32 32 33 33 34 34 34 34 34 34
27 27 28 28 28 28 29 28 28 28 28 28 28 28 28 28 29 29 28 28 28 29 29 29 29 29 30 30 31 31 32 33 33 34 34 35 35 35 35 35 35 36 35
26 27 27 28 28 28 29 28 28 28 29 29 30 30 30 31 31 31 31 30 30 30 30 30 31 31 31 32 32 33 33 34 35 35 35 36 36 36 36 36 36 36 36
26 26 27 27 27 28 28 28 29 29 29 30 30 31 32 32 32 32 32 32 32 31 31 31 32 32 32 33 34 34 35 36 36 36 37 37 36 36 36 36 36 37 37
27 27 28 28 27 28 28 29 30 30 31 31 31 31 32 32 32 32 33 33 33 32 32 32 33 33 33 33 34 35 35 36 37 37 37 37 37 37 36 36 36 37 37
28 28 28 28 28 28 29 30 30 31 31 31 31 31 32 32 32 32 33 33 33 33 34 34 34 35 34 34 34 34 35 36 37 37 37 37 37 37 37 37 37 37 36
29 29 29 29 29 29 30 30 31 31 31 31 31 31 31 31 31 32 33 33 33 34 34 35 35 35 35 35 36 36 36 36 36 36 36 35 35 35 35 36 37 36 36
29 29 29 29 29 30 31 31 31 31 31 31 31 32 32 32 32 32 33 33 34 34 35 35 35 36 36 36 36 36 36 36 36 36 37 36 36 36 36 36 36 35 35
30 30 30 30 30 31 31 31 31 31 32 32 32 33 33 33 34 34 34 34 35 35 35 36 36 36 36 36 36 36 35 36 36 36 36 36 36 36 36 37 36 36 35
31 31 31 32 32 32 32 32 32 32 32 33 33 33 33 34 35 35 35 35 35 36 35 35 36 36 36 36 37 37 36 36 36 36 36 36 36 36 36 36 36 36 36
32 32 33 33 33 33 33 33 33 33 33 33 34 34 34 34 34 35 35 36 36 36 35 35 35 35 36 36 36 36 36 35 35 36 36 36 36 36 36 36 37 37 37
33 33 34 34 34 34 34 34 34 34 33 33 33 34 34 34 34 35 35 35 35 35 35 35 35 35 35 36 36 36 36 36 36 36 36 35 35 35 35 36 36 37 37

GEFSGL_500_meanwind_270.txt.gz
Wind_Speed
14 14 14 14 14 14 14 14 13 13 13 12 11 11 11 11 11 11 10 10 10 10 9 9 9 9 9 9 9 10 10 10 9 10 10 11 11 11 11 11 12 12 11
16 15 15 15 15 15 15 15 14 14 14 13 13 13 12 12 12 11 10 10 10 10 9 9 9 9 10 10 10 10 10 10 11 11 12 12 12 12 12 12 13 13 13
17 17 16 16 16 16 16 16 15 15 14 14 14 14 13 13 12 12 12 12 11 11 11 10 10 10 10 10 11 11 12 12 13 13 13 13 13 13 12 13 13 13 13
18 18 17 17 17 17 17 17 16 16 15 15 14 14 14 13 13 13 12 12 12 12 12 11 11 11 11 12 12 13 13 13 14 14 14 14 13 14 14 14 13 14 14
20 19 19 19 19 19 18 18 17 17 16 16 15 15 14 14 14 14 13 12 12 12 12 12 13 13 13 13 14 14 14 15 15 15 15 15 15 15 15 15 14 15 15
22 21 21 21 20 20 19 19 18 17 17 17 16 15 15 15 15 15 14 14 14 13 13 13 13 14 14 15 15 16 16 16 16 16 16 16 17 17 16 16 16 16 17
23 23 22 22 22 21 20 19 19 18 18 18 18 17 17 16 16 16 15 15 15 15 15 15 15 16 16 16 17 17 18 19 19 19 18 18 19 19 19 19 18 18 18
23 23 23 23 23 22 21 21 20 20 20 19 19 19 18 18 17 17 17 17 17 17 17 17 18 18 18 18 19 19 19 19 20 20 20 20 21 21 21 21 21 21 21
24 24 24 24 24 24 23 23 22 21 21 20 20 19 19 19 19 19 19 19 19 19 19 20 20 20 21 21 21 21 22 21 21 22 22 23 23 23 23 23 22 23 23
25 25 25 25 25 24 24 23 23 23 22 22 22 21 20 21 21 21 21 21 21 21 21 22 22 22 23 23 23 23 24 24 24 24 24 24 25 25 25 25 25 25 25
25 25 24 25 25 25 25 25 25 25 24 24 24 23 22 22 22 22 22 22 22 23 23 23 23 23 24 24 24 25 25 25 25 25 25 26 26 27 27 27 28 28 28
25 26 26 26 26 26 27 27 26 26 26 25 25 25 25 24 24 24 24 24 24 24 24 24 24 25 25 26 25 26 26 26 26 26 27 27 27 28 29 29 30 30 30
25 26 26 27 27 27 27 27 26 26 26 26 26 26 26 25 25 25 25 25 25 25 25 25 26 26 27 27 27 27 27 28 28 28 29 29 29 29 30 30 30 31 32
26 26 27 28 28 28 28 27 27 27 27 27 27 27 27 27 26 26 26 26 26 27 27 27 27 27 28 28 28 29 29 29 29 29 30 30 31 31 30 31 31 31 32
27 27 27 27 27 27 28 28 28 28 28 29 29 29 29 28 28 28 28 28 28 28 28 29 29 29 29 30 30 30 30 31 30 30 31 31 31 31 32 32 33 33 33
28 27 27 27 27 27 27 28 28 28 28 29 29 30 30 30 30 30 30 29 29 29 30 30 30 31 30 30 30 30 31 31 31 31 32 32 32 33 33 34 34 34 34
29 29 29 28 28 29 29 28 28 29 28 29 30 31 32 32 32 32 32 32 32 32 32 32 32 32 32 31 31 31 31 31 32 32 32 33 33 34 34 34 34 34 34
30 29 30 30 29 30 29 29 30 30 31 30 31 32 32 33 33 33 33 33 33 33 33 33 33 33 33 32 31 31 32 32 32 33 33 33 34 34 35 34 33 32 32
30 30 30 30 31 31 31 30 31 31 31 31 31 32 32 33 34 33 34 34 33 33 33 33 34 33 33 33 32 32 32 33 33 34 34 34 34 34 34 33 32 32 31
31 31 31 31 31 32 32 32 32 32 31 32 32 32 32 33 33 33 34 34 34 34 34 34 34 34 34 33 33 33 33 34 34 34 34 34 34 34 33 33 32 32 32
31 31 31 31 31 31 32 32 32 32 32 32 32 32 33 33 34 34 35 35 35 35 34 34 34 35 35 35 35 35 35 35 35 35 35 35 35 34 33 33 33 33 33
31 31 31 31 31 31 32 32 32 33 33 33 34 34 34 34 35 35 36 36 36 35 35 34 35 35 35 35 35 35 35 35 35 36 36 36 35 35 34 34 34 33 33
31 32 32 32 32 32 32 32 33 34 34 34 34 35 35 35 35 36 36 37 36 35 35 35 35 36 36 35 35 36 36 37 37 37 37 36 35 35 35 35 35 35 35
32 32 32 32 33 32 32 33 33 34 35 35 36 35 35 36 35 35 35 35 35 35 35 36 36 36 36 36 36 36 37 37 37 37 37 36 35 35 35 35 35 35 35
32 32 33 33 33 33 34 33 33 33 34 34 34 34 34 34 33 33 33 33 33 34 35 36 36 36 36 35 36 37 37 37 38 37 36 35 34 34 34 34 35 35 35
32 33 33 33 33 33 33 33 32 32 33 33 33 32 32 31 31 31 31 31 32 33 33 34 34 35 35 35 36 36 36 37 36 36 35 35 34 34 34 34 35 35 35

GEFSGL_500_meanwind_276.txt.gz
Wind_Speed
14 14 14 14 13 13 12 12 12 12 12 12 12 12 12 11 11 11 11 11 10 10 9 10 10 9 9 9 9 9 9 10 10 11 12 12 12 11 12 12 12 12 13
16 16 16 15 15 14 14 13 13 14 14 13 13 13 13 13 12 12 12 11 11 10 10 10 9 9 9 9 9 9 10 11 12 11 12 13 13 13 13 14 14 14 14
17 18 18 17 17 16 16 15 15 15 15 15 15 14 14 14 14 14 13 12 12 11 11 11 10 10 10 10 10 11 11 12 12 12 12 13 13 14 14 15 15 15 15
19 19 19 19 19 18 18 18 17 17 16 16 16 16 16 15 15 15 14 13 13 12 12 12 12 12 12 12 12 12 12 12 12 13 13 14 15 15 15 16 16 16 16
20 20 20 20 20 19 19 19 19 18 18 17 17 17 17 16 16 16 15 15 14 14 14 13 13 13 13 13 14 14 14 14 14 14 14 15 15 15 16 16 16 16 17
21 20 20 21 20 19 20 20 20 20 19 18 18 17 17 17 17 16 16 16 16 15 15 15 14 14 14 14 15 15 15 15 15 16 16 16 17 17 17 18 18 18 18
22 22 22 22 22 22 21 21 21 20 20 19 19 18 18 18 18 18 17 17 17 16 16 16 16 16 16 16 17 17 17 18 18 18 18 18 18 19 19 20 20 20 20
23 22 22 22 22 23 23 22 21 21 21 20 20 19 20 20 19 19 19 19 18 18 18 18 18 18 18 18 19 19 19 19 20 20 19 20 20 20 21 21 22 22 22
23 22 22 22 22 23 22 22 22 21 21 21 21 21 21 21 21 21 21 21 20 20 20 20 20 20 20 20 20 21 21 21 21 21 22 22 23 23 23 23 23 23 24
22 22 22 22 22 22 21 22 22 22 22 22 22 22 22 22 22 22 22 22 22 22 22 22 22 22 22 22 22 22 22 22 23 23 23 24 25 25 25 26 26 26 26
22 22 22 22 22 22 22 23 23 23 23 24 24 23 23 23 23 24 24 24 24 24 24 24 24 23 23 23 23 23 24 24 25 25 25 25 25 25 26 27 27 27 27
23 23 23 23 23 24 24 25 24 25 25 25 25 24 24 24 24 25 25 26 25 25 24 25 25 25 25 25 25 26 26 27 27 27 26 26 27 27 27 28 28 29 30
23 23 24 24 25 26 26 26 26 26 26 26 26 26 26 26 26 26 27 27 26 26 26 26 26 26 27 27 28 27 27 28 28 28 28 28 28 29 29 30 31 31 30
23 24 24 25 26 27 28 28 28 27 28 28 27 28 28 28 28 28 28 28 27 27 27 27 28 28 28 29 29 29 29 29 29 29 29 30 30 31 30 30 31 32 32
25 26 26 26 27 27 28 28 28 28 28 29 29 29 28 29 29 29 30 30 30 30 30 30 29 29 30 30 30 30 30 30 30 30 31 31 32 32 32 32 32 33 33
26 26 27 27 27 27 28 29 29 29 30 30 31 30 30 30 31 31 31 31 31 31 32 32 32 31 30 30 30 31 31 31 31 32 32 32 32 33 33 33 33 33 34
27 27 27 28 28 29 29 29 30 30 31 31 32 32 32 32 32 33 33 33 33 33 33 33 34 33 32 32 32 32 32 32 32 32 32 32 33 33 34 34 33 34 33
29 29 30 30 30 30 30 30 30 30 31 32 33 33 33 34 34 35 35 35 35 35 35 35 35 35 34 34 33 33 33 33 33 33 34 34 34 34 34 34 34 34 33
30 30 31 31 31 31 31 31 31 31 31 31 32 33 33 34 35 35 36 37 36 36 36 37 37 36 36 36 35 35 35 34 34 34 34 34 35 35 35 35 34 34 33
31 31 31 32 32 32 32 32 32 32 32 32 32 33 35 36 36 36 37 38 38 38 38 38 37 37 37 37 37 37 36 36 35 35 35 35 36 36 36 35 35 34 33
31 31 32 32 32 33 33 33 33 33 33 33 33 34 34 35 36 37 37 37 38 38 39 39 38 38 38 38 38 37 37 36 36 36 37 37 36 36 36 35 35 34 34
32 32 32 33 33 33 33 33 32 32 32 33 33 34 34 36 36 36 36 37 37 38 38 38 38 39 38 38 37 37 37 37 37 37 37 37 37 37 36 35 34 34 34
33 32 33 33 33 33 33 32 33 33 33 34 35 36 36 37 37 37 37 36 37 37 38 38 38 39 38 37 37 37 38 37 37 37 37 37 37 37 36 35 35 34 34
32 32 32 32 32 32 32 33 33 33 34 35 36 37 37 36 36 36 36 36 36 36 37 37 37 38 37 37 37 38 38 37 37 37 37 37 37 36 35 35 35 34 34
30 30 30 30 30 31 32 32 32 33 33 33 33 34 34 33 33 34 33 33 33 34 35 35 36 36 37 37 37 36 36 36 36 37 37 36 35 35 34 34 34 34 34
30 30 31 31 31 31 31 32 32 32 32 32 32 32 32 32 32 32 32 32 33 33 33 33 34 34 34 34 34 34 35 36 36 36 36 35 35 34 34 33 33 33 33

GEFSGL_500_meanwind_282.txt.gz
Wind_Speed
16 16 17 17 17 16 16 15 15 15 14 14 14 14 14 14 14 14 14 14 13 13 13 12 12 12 12 11 11 11 11 11 12 12 12 12 13 13 13 13 13 14 14
17 18 18 19 18 18 17 17 17 17 16 16 16 15 15 15 15 15 15 14 14 14 14 13 13 13 13 13 13 12 12 12 12 12 12 13 13 14 14 15 15 14 15
19 20 20 20 20 19 19 19 19 19 19 18 17 17 16 16 16 15 15 15 15 15 14 14 13 13 13 13 13 14 13 13 13 13 13 14 14 14 15 15 16 16 16
21 21 21 21 21 20 20 20 20 20 19 19 18 18 18 18 17 17 16 16 16 16 16 15 15 15 14 14 14 14 14 14 15 15 15 15 15 15 16 16 16 17 17
22 22 22 22 22 21 21 21 21 21 21 20 19 19 19 19 19 18 18 17 17 17 17 17 16 16 16 16 16 16 16 16 16 17 17 17 17 17 17 17 18 18 18
23 23 23 22 22 22 22 22 22 22 22 22 21 20 19 19 19 19 19 18 18 17 17 17 17 18 17 18 18 18 18 18 18 19 19 19 18 18 18 19 18 19 19
24 23 22 22 22 22 22 22 22 22 22 22 22 21 20 19 19 19 19 19 18 18 18 18 18 18 18 18 19 20 20 20 20 20 20 20 20 20 20 20 20 20 20
23 22 22 21 21 22 22 22 22 23 23 22 22 22 21 21 21 20 20 19 19 19 18 18 19 19 19 20 21 21 21 21 21 21 21 22 22 22 22 22 22 22 22
22 22 21 21 20 21 22 22 22 22 22 23 23 23 23 23 22 22 22 22 22 21 21 21 21 21 22 22 22 21 22 22 23 23 23 24 24 24 24 24 24 24 24
23 22 22 22 22 22 22 22 22 22 23 24 23 23 24 24 23 23 24 24 24 24 24 24 24 23 23 23 23 23 23 23 24 24 25 25 25 25 25 26 26 26 26
23 23 23 23 22 22 23 23 23 23 23 23 24 24 24 25 25 25 26 26 26 25 25 25 25 25 25 26 26 26 25 26 26 26 27 27 27 26 27 27 28 28 28
24 24 23 23 24 24 24 24 25 24 24 24 24 25 25 26 26 26 27 27 26 26 26 25 26 26 27 27 28 28 28 28 29 29 29 29 29 29 29 29 30 29 29
24 24 25 25 25 26 26 26 26 26 26 26 26 27 28 28 29 29 28 28 28 28 28 28 28 28 28 29 29 30 30 30 31 31 31 30 31 32 32 32 32 32 32
25 25 25 26 26 27 27 27 27 27 27 28 28 29 29 30 31 31 31 31 31 30 30 30 30 30 31 31 31 31 32 32 33 33 33 33 33 33 33 34 35 35 35
26 27 27 27 27 27 28 28 28 28 28 28 29 29 30 31 31 33 33 33 32 33 33 33 33 33 33 33 33 34 34 34 34 34 35 35 35 35 35 35 36 36 36
26 27 28 28 28 28 28 29 29 29 29 29 29 29 30 31 32 33 33 34 34 35 35 35 35 35 35 35 35 35 36 36 36 36 36 36 36 36 36 36 37 37 37
26 27 28 29 29 29 30 29 30 30 30 29 29 30 31 32 33 33 34 35 35 36 36 37 37 37 37 37 38 38 38 38 38 37 37 37 37 37 36 36 37 38 38
28 28 28 29 30 30 30 29 30 30 30 31 31 32 32 33 34 34 34 35 35 36 37 37 37 38 38 39 39 39 39 39 39 39 38 37 37 37 37 37 37 37 37
29 29 29 30 30 30 30 31 31 31 31 32 32 33 34 35 35 35 36 36 36 36 37 38 39 39 40 40 40 40 39 39 39 38 38 38 38 37 36 36 37 36 35
29 29 30 30 31 32 32 32 33 32 32 33 33 34 34 35 36 36 37 37 38 39 39 39 40 41 41 41 41 40 40 39 39 39 39 38 38 37 36 36 36 35 33
30 30 31 32 33 33 33 34 34 34 34 34 35 35 35 35 36 37 38 38 39 40 41 41 41 41 41 41 41 41 40 40 40 40 39 39 38 37 37 36 35 34 34
32 32 32 33 33 34 34 35 35 35 35 35 36 36 36 36 36 36 37 37 38 38 39 40 40 40 40 41 42 42 41 40 40 40 39 39 38 38 38 37 35 35 34
32 33 33 33 34 35 35 35 35 35 35 35 36 36 36 36 36 36 35 36 36 36 36 37 38 38 38 39 40 40 40 40 40 39 39 38 38 38 37 36 35 35 35
33 33 33 33 34 34 35 35 35 35 35 35 36 36 36 36 36 36 35 35 35 36 36 37 37 37 37 38 38 39 39 39 39 39 38 38 38 37 37 36 36 35 35
32 32 32 33 33 33 34 34 34 34 35 35 36 36 36 35 35 35 35 35 35 35 35 35 36 36 36 37 37 37 37 37 38 38 38 38 37 36 36 36 35 35 35
31 32 32 32 32 33 33 33 33 34 34 34 34 34 34 34 34 34 34 34 34 34 34 34 34 34 35 35 35 36 36 37 37 37 37 36 35 34 34 34 35 34 34

GEFSGL_500_meanwind_288.txt.gz
Wind_Speed
19 19 18 19 19 19 19 18 18 18 17 17 16 16 16 16 15 15 15 15 15 15 15 15 14 14 14 14 14 14 14 14 14 14 14 13 14 14 14 14 14 14 13
20 20 20 20 21 21 20 19 19 19 19 19 18 18 18 18 17 17 16 16 16 15 15 16 15 15 15 15 15 15 15 15 15 14 14 14 14 14 14 14 15 15 14
21 21 21 21 22 22 21 21 20 20 20 20 19 19 19 19 19 18 18 17 17 17 17 17 16 16 15 15 15 16 16 16 16 16 15 15 15 14 15 15 16 15 15
22 22 22 22 22 23 22 22 22 21 21 21 21 21 20 20 20 19 19 19 18 18 19 18 18 17 17 16 16 17 17 17 17 17 16 16 16 16 16 16 16 16 16
22 22 22 23 23 23 22 22 22 22 22 22 22 22 22 22 21 21 20 20 19 19 19 19 19 19 19 18 18 18 18 17 18 18 17 17 17 18 18 17 17 17 17
21 22 22 22 22 22 22 22 22 22 23 22 22 22 23 22 22 21 21 21 20 20 20 20 20 20 20 20 20 20 19 19 19 19 19 19 19 19 19 19 19 19 19
23 23 23 22 22 22 22 21 21 21 22 22 22 22 22 23 23 22 22 22 22 22 22 21 20 20 21 21 21 21 21 21 21 21 21 21 21 21 21 20 21 21 21
24 24 23 23 22 21 21 22 21 21 21 21 22 22 22 23 23 23 23 23 23 23 23 23 22 21 21 21 21 22 22 23 23 23 23 23 23 23 23 23 23 23 24
24 24 23 23 22 22 21 21 21 21 21 22 22 22 23 23 23 23 24 25 25 24 25 24 23 23 23 23 23 23 24 24 25 25 25 25 25 25 25 26 26 26 26
24 25 24 24 23 24 23 22 22 21 21 22 23 23 24 24 24 24 25 25 25 25 25 25 25 25 25 25 26 26 26 26 26 26 26 26 27 27 28 28 28 28 28
24 25 26 25 24 24 24 23 23 23 23 22 23 23 24 25 25 26 26 26 26 26 26 27 27 27 27 28 28 28 27 27 28 28 28 28 28 29 29 30 30 30 30
25 25 26 26 25 25 25 24 24 24 25 25 25 25 24 25 25 26 26 27 27 27 27 28 28 28 29 29 30 30 30 30 30 30 30 30 30 30 31 31 31 32 32
24 25 25 26 25 25 25 25 25 25 25 26 26 26 26 26 26 27 27 27 28 29 29 29 29 29 30 30 31 31 31 31 32 32 32 32 32 33 33 33 33 34 34
24 26 26 26 26 26 26 26 26 26 26 27 27 27 27 27 27 28 28 29 30 30 31 31 31 31 31 31 32 32 32 32 33 33 34 34 34 35 35 35 35 35 36
25 26 27 27 27 27 27 27 27 27 27 27 27 28 28 28 28 28 29 30 31 31 32 32 32 33 33 33 34 34 34 34 34 34 35 35 36 36 36 37 37 36 36
25 26 27 27 27 27 27 27 27 27 27 27 28 28 28 28 28 29 30 30 31 32 32 33 33 34 35 35 35 36 36 36 36 36 36 36 36 37 37 38 38 38 37
25 25 26 26 26 26 26 27 27 27 28 28 28 28 28 28 29 30 30 31 32 33 33 33 34 34 35 36 36 36 36 37 37 37 37 37 37 37 38 38 38 37 37
25 25 26 27 26 26 26 27 28 28 28 28 29 28 29 29 30 30 31 31 32 33 33 34 34 35 35 36 37 37 38 38 39 39 38 38 38 38 38 38 37 37 37
26 26 27 28 27 27 28 28 28 29 29 29 30 30 31 31 31 32 32 32 33 33 34 34 35 36 36 37 37 37 38 39 39 39 39 39 39 39 39 39 38 38 37
27 28 29 29 29 29 29 29 29 30 30 30 31 31 32 33 32 33 34 34 35 35 35 35 36 36 37 37 38 38 39 39 40 40 40 41 41 40 40 40 40 39 38
28 29 29 29 29 29 30 30 31 31 32 32 33 33 34 34 35 35 36 36 37 37 37 36 36 37 37 37 37 38 38 38 39 40 41 41 40 40 40 40 40 39 38
28 29 29 29 30 30 31 32 33 33 34 34 34 34 35 35 35 36 36 37 37 37 37 37 36 36 37 37 37 37 37 37 38 39 39 40 40 40 40 39 39 38 37
29 29 30 31 31 31 32 32 33 33 34 34 34 34 34 33 33 34 34 35 36 37 37 37 36 36 37 37 37 37 37 37 38 38 38 39 39 39 39 39 39 38 37
29 29 30 31 31 32 32 32 32 32 32 32 32 32 32 32 33 33 34 35 35 36 36 36 36 36 36 36 36 37 37 37 38 37 37 37 37 38 39 39 39 38 37
28 29 30 30 31 31 31 32 31 31 31 31 31 31 32 32 33 34 34 35 35 35 35 35 36 35 35 36 36 37 37 37 38 38 38 37 37 37 38 38 38 37 37
28 29 30 30 30 31 32 31 31 31 31 31 31 32 32 33 33 34 34 34 34 35 35 34 34 34 34 34 35 35 36 37 37 38 38 37 36 36 37 37 36 37 37